Total_Precipitation_Accumulation
0.15 0.14 0.15 0.14 0.13 0.13 0.13 0.15 0.19 0.14 0.05 0.03 0.05 0.06 0.08 0.12 0.16 0.16 0.16 0.18 0.21 0.24 0.26 0.27 0.30 0.35 0.49 0.80 1.31 1.63 1.50 0.98 0.46 0.22 0.17 0.16 0.12 0.08
0.19 0.20 0.20 0.21 0.20 0.19 0.19 0.17 0.17 0.18 0.11 0.04 0.05 0.07 0.09 0.11 0.16 0.17 0.17 0.18 0.18 0.20 0.22 0.23 0.26 0.33 0.41 0.53 0.79 1.23 1.48 1.38 0.92 0.52 0.36 0.29 0.20 0.12
0.23 0.27 0.28 0.27 0.27 0.24 0.23 0.22 0.19 0.19 0.16 0.06 0.03 0.07 0.12 0.15 0.17 0.17 0.18 0.16 0.14 0.16 0.19 0.20 0.23 0.29 0.38 0.49 0.58 0.83 1.23 1.40 1.29 0.94 0.68 0.47 0.27 0.13
0.40 0.39 0.39 0.40 0.41 0.37 0.35 0.30 0.26 0.22 0.20 0.13 0.05 0.05 0.12 0.19 0.25 0.24 0.21 0.17 0.13 0.14 0.15 0.17 0.18 0.23 0.32 0.41 0.49 0.60 0.86 1.18 1.33 1.19 0.93 0.68 0.43 0.23
0.68 0.67 0.64 0.60 0.59 0.57 0.54 0.45 0.35 0.26 0.22 0.18 0.11 0.07 0.11 0.21 0.31 0.32 0.28 0.20 0.14 0.15 0.15 0.15 0.15 0.17 0.22 0.29 0.38 0.46 0.55 0.73 0.98 1.19 1.22 0.95 0.64 0.42
0.78 0.81 0.86 0.87 0.83 0.78 0.73 0.59 0.44 0.32 0.25 0.22 0.17 0.13 0.12 0.20 0.36 0.41 0.37 0.29 0.19 0.15 0.16 0.14 0.14 0.13 0.13 0.16 0.21 0.31 0.46 0.66 0.84 1.05 1.23 1.18 0.86 0.63
0.52 0.58 0.69 0.83 0.89 0.91 0.90 0.73 0.56 0.44 0.35 0.28 0.23 0.20 0.17 0.22 0.37 0.45 0.49 0.45 0.38 0.27 0.19 0.12 0.10 0.09 0.09 0.13 0.19 0.27 0.37 0.48 0.61 0.79 1.02 1.16 1.03 0.81
0.31 0.34 0.40 0.55 0.61 0.68 0.78 0.77 0.76 0.69 0.57 0.45 0.36 0.29 0.25 0.26 0.35 0.50 0.52 0.54 0.52 0.42 0.32 0.24 0.16 0.12 0.09 0.09 0.14 0.21 0.28 0.36 0.45 0.57 0.74 0.92 0.99 0.91
0.16 0.17 0.19 0.28 0.36 0.38 0.46 0.52 0.63 0.74 0.77 0.70 0.63 0.53 0.40 0.34 0.35 0.44 0.51 0.56 0.56 0.55 0.51 0.46 0.36 0.25 0.17 0.16 0.19 0.20 0.23 0.26 0.32 0.39 0.50 0.65 0.79 0.87
0.12 0.11 0.09 0.15 0.25 0.23 0.25 0.33 0.44 0.60 0.77 0.83 0.86 0.77 0.57 0.41 0.38 0.45 0.56 0.58 0.61 0.71 0.71 0.65 0.54 0.39 0.32 0.28 0.28 0.22 0.19 0.20 0.24 0.28 0.34 0.43 0.54 0.66
0.10 0.12 0.09 0.07 0.16 0.11 0.11 0.19 0.25 0.39 0.52 0.65 0.69 0.66 0.58 0.52 0.48 0.49 0.57 0.65 0.76 0.86 0.87 0.82 0.73 0.51 0.44 0.45 0.43 0.32 0.22 0.20 0.20 0.23 0.25 0.28 0.33 0.41
0.06 0.08 0.13 0.12 0.10 0.07 0.06 0.10 0.15 0.22 0.26 0.32 0.36 0.41 0.43 0.44 0.50 0.57 0.66 0.70 0.79 0.94 0.95 0.86 0.88 0.67 0.59 0.57 0.45 0.33 0.25 0.25 0.24 0.23 0.21 0.19 0.18 0.17
0.05 0.07 0.11 0.10 0.06 0.04 0.03 0.05 0.11 0.08 0.09 0.15 0.22 0.29 0.37 0.43 0.48 0.57 0.66 0.71 0.76 0.86 0.90 0.82 0.88 0.71 0.54 0.57 0.50 0.38 0.26 0.23 0.23 0.27 0.24 0.20 0.15 0.10
0.05 0.04 0.06 0.04 0.02 0.01 0.01 0.01 0.01 0.01 0.03 0.06 0.11 0.17 0.28 0.41 0.50 0.57 0.63 0.68 0.74 0.80 0.76 0.69 0.73 0.63 0.42 0.34 0.41 0.42 0.31 0.24 0.20 0.21 0.21 0.24 0.19 0.16
0.16 0.11 0.02 0.00 0.00 0.00 0.00 0.00 0.00 0.00 0.01 0.03 0.07 0.13 0.22 0.33 0.39 0.45 0.51 0.55 0.59 0.68 0.71 0.66 0.65 0.62 0.44 0.27 0.22 0.28 0.31 0.31 0.23 0.19 0.18 0.16 0.12 0.10
0.13 0.09 0.02 0.00 0.00 0.00 0.00 0.00 0.00 0.00 0.01 0.02 0.05 0.09 0.13 0.19 0.27 0.36 0.43 0.47 0.49 0.60 0.74 0.76 0.74 0.69 0.58 0.38 0.22 0.19 0.20 0.27 0.25 0.16 0.14 0.14 0.11 0.08
0.06 0.02 0.00 0.00 0.00 0.00 0.00 0.00 0.00 0.00 0.00 0.01 0.02 0.04 0.08 0.13 0.21 0.29 0.38 0.43 0.46 0.54 0.71 0.87 0.84 0.77 0.70 0.56 0.36 0.22 0.15 0.14 0.17 0.14 0.11 0.12 0.12 0.09
0.04 0.01 0.00 0.00 0.00 0.00 0.00 0.00 0.00 0.00 0.00 0.01 0.01 0.03 0.06 0.11 0.17 0.23 0.31 0.39 0.44 0.48 0.57 0.75 0.79 0.73 0.76 0.80 0.58 0.28 0.14 0.11 0.12 0.13 0.10 0.09 0.10 0.08
0.02 0.01 0.00 0.00 0.00 0.00 0.00 0.00 0.00 0.00 0.00 0.00 0.01 0.02 0.04 0.08 0.12 0.18 0.25 0.32 0.40 0.45 0.50 0.56 0.65 0.63 0.64 0.78 0.86 0.50 0.22 0.12 0.10 0.12 0.11 0.08 0.07 0.06
0.01 0.00 0.00 0.00 0.00 0.00 0.00 0.00 0.00 0.00 0.00 0.00 0.00 0.01 0.03 0.05 0.08 0.13 0.19 0.26 0.33 0.39 0.44 0.49 0.58 0.61 0.51 0.45 0.52 0.60 0.41 0.19 0.10 0.10 0.12 0.11 0.09 0.06
0.01 0.01 0.00 0.00 0.00 0.00 0.00 0.00 0.00 0.00 0.00 0.00 0.00 0.01 0.02 0.03 0.05 0.09 0.13 0.19 0.24 0.30 0.35 0.41 0.50 0.53 0.48 0.35 0.31 0.41 0.45 0.33 0.16 0.10 0.09 0.09 0.09 0.07
0.02 0.01 0.01 0.00 0.00 0.00 0.00 0.00 0.00 0.00 0.00 0.00 0.00 0.00 0.01 0.02 0.04 0.06 0.09 0.13 0.18 0.23 0.27 0.32 0.37 0.44 0.49 0.45 0.39 0.36 0.37 0.36 0.30 0.19 0.10 0.05 0.05 0.05
0.04 0.03 0.02 0.01 0.01 0.00 0.00 0.00 0.00 0.00 0.00 0.00 0.00 0.00 0.00 0.01 0.02 0.03 0.05 0.08 0.12 0.16 0.19 0.24 0.28 0.33 0.42 0.44 0.40 0.33 0.28 0.25 0.21 0.17 0.14 0.08 0.04 0.03